PulseSat

PulseSat

MOLNIYA 2-10

Last updated on Dec. 9, 2018, 12:08 a.m. UTC

1 07376U 74056A   18342.67833723 -.00001031  00000-0  00000+0 0  9997
2 07376  63.3998 229.3552 7023196 294.6476  10.0697  2.01185765324521
UTC
Height (km)
Latitude
Longitude
Inclination
Orbital Period

Next 30 passes for location: Hong Kong

Rise time Rise Azimuth (degrees) Set time Set Azimuth (degrees) Duration Max altitude (degrees)

No matching passes for this satellites

PulseSat

PulseSat is the new satellites software and hardware trackering solution by Pulsely.
Satellite Two Line Element Set source: US Air Force Space Command

Download PulseSat for iOS
© 2017 Pulsely Limited